Regional Weather Roundup
Issued by NWS

Home | Current Version | Previous Version | Text Only | Print | Product List | Glossary On
Versions: 1 2 3 4 5 6 7 8 9 10 11 12 13 14 15 16 17 18 19 20 21 22 23 24 25 26 27 28 29 30 31 32 33 34 35 36 37 38 39 40 41 42 43 44 45 46 47 48 49 50
000
ASUS45 KPSR 032310
RWRAZ

ARIZONA HOURLY REGIONAL WEATHER ROUNDUP
NATIONAL WEATHER SERVICE PHOENIX AZ
400 PM MST WED JUN 03 2015

NOTE: FAIR INDICATES FEW OR NO CLOUDS BELOW 12,000 FEET WITH NO
SIGNIFICANT WEATHER AND/OR OBSTRUCTIONS TO VISIBILITY.

AZZ001>003-036-040000-
NORTHWEST ARIZONA

CITY           SKY/WX    TMP DP  RH WIND       PRES   REMARKS
BULLHEAD CITY  SUNNY     97  25   7 S25       29.65F
KINGMAN        SUNNY     87  17   7 SW24G35   29.83F
$$

AZZ004>008-015-016-018-040000-
NORTH CENTRAL ARIZONA

CITY           SKY/WX    TMP DP  RH WIND       PRES   REMARKS
GRAND CANYON   SUNNY     75   8   7 SW16G25   30.03F
WILLIAMS       SUNNY     73   9   8 SW16G29   30.11F
PRESCOTT       SUNNY     80  13   8 S14G24    29.97F
FLAGSTAFF      SUNNY     71  13  10 S20G31    30.08F
PAYSON         SUNNY     82  12   7 SW12G26   30.00F
PAGE           SUNNY     88  12   6 SW10G20   29.81F
$$

AZZ009>014-017-040000-
NORTHEAST ARIZONA

CITY           SKY/WX    TMP DP  RH WIND       PRES   REMARKS
WINSLOW        SUNNY     88  13   6 SW20G28   29.92F
SAINT JOHNS    SUNNY     87  12   6 SW15G26   29.97F
WINDOW ROCK    SUNNY     82  11   7 SW22G29   30.03F
SHOW LOW       SUNNY     79  16   9 SW18G29   30.06F
$$

AZZ023-040000-
GREATER PHOENIX AREA

CITY           SKY/WX    TMP DP  RH WIND       PRES   REMARKS
PHOENIX        MOSUNNY  101  16   4 W10G21    29.70F
BUCKEYE        SUNNY     97  10   4 SW15G22   29.73F
GLENDALE       SUNNY     99  18   5 S12G17    29.74F
LUKE AFB       SUNNY     97  20   6 SW14G20   29.71F
SCOTTSDALE     SUNNY     97   9   4 SW12G20   29.75F
MESA-GATEWAY   SUNNY     97  28   9 W7G16     29.75F
CHANDLER       SUNNY     99  23   6 W5        29.72F
$$

AZZ027-028-040000-
SOUTHWEST MARICOPA COUNTY AND PINAL COUNTY

CITY           SKY/WX    TMP DP  RH WIND       PRES   REMARKS
CASA GRANDE    SUNNY    100  34  10 W7G20     29.73S
GILA BEND      SUNNY    100  15   4 W13G23    29.71F
$$

AZZ503-504-507>509-040000-
SOUTHEAST ARIZONA

CITY           SKY/WX    TMP DP  RH WIND       PRES   REMARKS
TUCSON         SUNNY    100   8   3 W14G20    29.82F
DAVIS-MONTHAN  SUNNY     99  13   4 W14G24    29.80F
RYAN FIELD     SUNNY    102  19   5 MISG      29.81F
NOGALES        SUNNY     95   8   4 SW14G23   29.94F
SIERRA VISTA   SUNNY     90   7   4 W16G26    29.99S
DOUGLAS        SUNNY     93   8   4 SW13G22   29.94F
SAFFORD        CLOUDY    98  16   5 W12G17    29.80F
$$

AZZ020-021-025-026-031-040000-
SOUTHWEST ARIZONA

CITY           SKY/WX    TMP DP  RH WIND       PRES   REMARKS
YUMA           SUNNY     99  17   5 W14       29.70F
$$

CAZ031-033-041-043-047-048-061-040000-
SOUTHERN CALIFORNIA

CITY           SKY/WX    TMP DP  RH WIND       PRES   REMARKS
DOWNTOWN L.A.  MOSUNNY   74  57  55 VRB7      29.87F
L.A. AIRPORT   MOSUNNY   67  56  67 W13       29.89F
SAN DIEGO      MOSUNNY   66  53  63 SW9       29.93F
BURBANK        MOSUNNY   72  54  53 CALM      29.88F
ONTARIO        MOSUNNY   75  54  47 W6        29.87F
RIVERSIDE      SUNNY     77  55  46 W8        29.86F
PALM SPRINGS   SUNNY     95  36  12 NW21      29.70F
EL CENTRO NAS  SUNNY     96  39  13 SW30G36   29.70F
IMPERIAL       SUNNY     96  37  12 SW25G32   29.68F
BLYTHE         SUNNY     98  31   9 SW21      29.67F
NEEDLES        SUNNY     98  15   5 SW9G20    29.67F
$$

NVZ020-UTZ003-040000-
SOUTHERN NEVADA-UTAH

CITY           SKY/WX    TMP DP  RH WIND       PRES   REMARKS
LAS VEGAS      MOSUNNY   93  22   7 S16       29.66F
SALT LAKE CITY CLOUDY    76  43  30 N10       29.78F
$$

NMZ009-TXZ055-040000-
NEW MEXICO-WEST TEXAS

CITY           SKY/WX    TMP DP  RH WIND       PRES   REMARKS
ALBUQUERQUE    MOSUNNY   87  22   9 SE6       29.94F
EL PASO        SUNNY     97  17   5 SW20G25   29.87F
$$


........................KEY........................
SKY/WX - SKY CONDITION/WEATHER
TMP    - TEMPERATURE IN FAHRENHEIT
DP     - DEW POINT IN FAHRENHEIT
RH     - RELATIVE HUMIDITY IN PERCENT
WIND   - DIRECTION AND SPEED IN MILES PER HOUR (MPH)
VRB    - VARIABLE WIND DIRECTION
PRES   - MEAN SEA LEVEL PRESSURE IN INCHES OF MERCURY
         F - FALLING PRESSURE   R - RISING PRESSURE
         S - STEADY PRESSURE
VSB    - VISIBILITY IN MILES
HX     - HEAT INDEX IN FAHRENHEIT
WCI    - WIND CHILL INDEX IN FAHRENHEIT
TC     - TEMPERATURE IN CELSIUS WHICH IS ALSO KNOWN AS
         TEMPERATURE IN CENTIGRADE
AFB    - AIR FORCE BASE
         LUKE AFB IS LUKE AIR FORCE BASE
         DAVIS-MONTHAN IS DAVIS-MONTHAN AIR FORCE BASE
NAS    - NAVAL AIR STATION
         EL CENTRO NAS IS EL CENTRO NAVAL AIR STATION
N/A    - NOT AVAILABLE



USA.gov is the U.S. government's official web portal to all federal, state and local government web resources and services.